Regional Weather Roundup
Issued by NWS

Home | Current Version | Previous Version | Graphics & Text | Print | Product List | Glossary On
Versions: 1 2 3 4 5 6 7 8 9 10 11 12 13 14 15 16 17 18 19 20 21 22 23 24 25 26 27 28 29 30 31 32 33 34 35 36 37 38 39 40 41 42 43 44 45 46 47 48 49 50
000
ASUS43 KBIS 210810
RWRND

NORTH DAKOTA REGIONAL WEATHER ROUNDUP
NATIONAL WEATHER SERVICE BISMARCK ND
200 AM CST SUN DEC 21 2014

NOTE: "FAIR" INDICATES FEW OR NO CLOUDS BELOW 12,000 FEET WITH NO
SIGNIFICANT WEATHER AND/OR OBSTRUCTIONS TO VISIBILITY.


NDZ001>003-009>011-017-210900-
NORTHWEST NORTH DAKOTA

CITY           SKY/WX    TMP DP  RH WIND       PRES   REMARKS
WILLISTON      CLEAR     17  15  92 CALM      29.65F
MINOT          CLEAR     28  23  81 SW12      29.67F WCI  18
MINOT AFB      CLEAR     22  22  99 W7        29.66F WCI  14
$$

NDZ018>021-031>035-040>046-210900-
SOUTHWEST NORTH DAKOTA

CITY           SKY/WX    TMP DP  RH WIND       PRES   REMARKS
BISMARCK       CLEAR     15  13  91 NE3       29.75F
DICKINSON      PTCLDY    26  19  74 S3        29.66F
GARRISON         N/A     21  19  92 S3        29.69F
HETTINGER ARPT MOCLDY    26  21  81 SE3       29.71F
$$

NDZ004>008-012>016-024-026-027-054-210900-
NORTHEAST NORTH DAKOTA

CITY           SKY/WX    TMP DP  RH WIND       PRES   REMARKS
GRAND FORKS    CLOUDY    31  28  89 S16       29.79F WCI  20
GRND FRKS AFB  CLOUDY    29  29 100 SW16      29.80S WCI  18
DEVILS LAKE    CLOUDY    27  19  74 S6        29.71F WCI  20
$$

NDZ022-023-025-028>030-036>039-047>053-210900-
SOUTHEAST NORTH DAKOTA

CITY           SKY/WX    TMP DP  RH WIND       PRES   REMARKS
FARGO          CLOUDY    32  29  88 S12       29.84F FOG
JAMESTOWN      FOG       25  23  92 S12       29.76F VSB 1   WCI  14
$$



USA.gov is the U.S. government's official web portal to all federal, state and local government web resources and services.